Home   Weather   Aleppo   Past weeks

Flag for Syria Past Weather in Aleppo, Syria — Yesterday and Last 2 Weeks

Now
74 °F

Scattered clouds.


Feels Like: 77 °F
Forecast: 54 / 82 °F
Wind: 1 mph from Northwest

Location: Iskenderun

Current Time: Apr 26, 2017 at 8:38:33 pm

Latest Report: Apr 26, 2017 at 7:00 pm


Visibility: 13 mi

Pressure: 29.98 "Hg

Humidity: 36%

Dew Point: 45 °F

Location of AleppoLocation

Past Weather in Aleppo — Graph

°F

Aleppo Temperature Yesterday

Maximum temperature yesterday: 74 °F (at 5:00 pm)
Minimum temperature yesterday: 58 °F (at 6:00 am)
Average temperature yesterday: 68 °F

High & Low Weather Summary for the Past Weeks

 TemperatureHumidityPressure
High88 °F (Apr 23, 3:00 am)93% (Apr 14, 6:00 am)30.14 "Hg (Apr 14, 6:00 am)
Low58 °F (Apr 25, 6:00 am)19% (Apr 23, 3:00 am)29.47 "Hg (Apr 23, 3:00 am)
Average68 °F60%29.97 "Hg
* Reported Apr 11 7:00 pm — Apr 26 7:00 pm, Aleppo, Weather by CustomWeather, © 2017

Note: Actual official high and low records may vary slightly from our data, if they occured in-between our weather recording intervals... More about our weather records

Advertising

Aleppo Weather History for the Previous 24 Hours

Scroll right to see more
 ConditionsComfort  
Time TempWeatherWind HumidityBarometerVisibility
7:00 pm
Wed, Apr 26
74 °FScattered clouds.1 mph36%29.98 "Hg12 mi
6:00 pm76 °FScattered clouds.1 mph35%29.98 "Hg12 mi
5:00 pm75 °FPartly sunny.3 mph47%30.00 "Hg12 mi
4:00 pm75 °FScattered clouds.7 mph48%30.01 "Hg12 mi
3:00 pm75 °FScattered clouds.3 mph42%30.01 "Hg12 mi
2:00 pm74 °FScattered clouds.2 mph49%30.03 "Hg12 mi
1:00 pm72 °FScattered clouds.2 mph50%30.04 "Hg12 mi
12:00 pm71 °FScattered clouds.2 mph51%30.05 "Hg9 mi
11:00 am69 °FPassing clouds.2 mph50%30.07 "Hg9 mi
10:00 am68 °FSunny.3 mph51%30.07 "Hg9 mi
9:00 am67 °FSunny.2 mph47%30.08 "Hg9 mi
6:00 am60 °FSunny.1 mph50%30.04 "Hg9 mi
3:00 am61 °FClear.No wind50%30.05 "Hg9 mi
12:00 am63 °FClear.1 mph55%30.08 "Hg9 mi
9:00 pm
Tue, Apr 25
67 °FClear.No wind56%30.08 "Hg9 mi
8:00 pm67 °FClear.2 mph59%30.06 "Hg9 mi
Weather by CustomWeather, © 2017

See weather overviewHow to use our weather pages